Flag for France Weather past 2 weeks in Lille, France

Now
79 °F

Passing clouds.


Feels Like: 81 °F
Forecast: 66 / 80 °F
Wind: 13 mph from Northeast

Location: Lille Airport

Current Time: Jul 23, 2014 at 12:08:56 PM

Latest Report: Jul 23, 2014 at 11:30 AM


Visibility: N/A

Pressure: 30.04 "Hg

Humidity: 65%

Dew point: 66 °F

Location of LilleLocation

Historic Weather in Lille — Graph

°F

Lille temperature yesterday

Maximum temperature yesterday: 75 °F (at 3:00 PM)
Minimum temperature yesterday: 63 °F (at 4:00 AM)
Average temperature yesterday: 68 °F

Past Weeks' High & Low Weather Summary

 TemperatureHumidityPressure
High91 °F (Jul 18, 2:30 PM)100% (Jul 9, 6:00 AM)30.18 "Hg (Jul 9, 6:00 AM)
Low55 °F (Jul 9, 6:00 AM)36% (Jul 18, 4:00 PM)29.74 "Hg (Jul 13, 5:30 PM)
Average67 °F80%29.97 "Hg
* Reported Jul 8 11:00 AM — Jul 23 11:00 AM, Lille, Weather by CustomWeather, © 2014

Note: Actual official high and low records may vary slightly from our data, if they occured in-between our weather recording intervals... More about our weather records

Advertising

Lille weather history for previous 24 hours

 ConditionsComfort  
Time TempWeatherWind HumidityBarometerVisibility
11:00 AM
Jul 23
77 °FSunny.9 mph65%30.04 "Hg10 mi
10:00 AM73 °FPassing clouds.7 mph74%30.07 "HgN/A
8:00 AM66 °FClear.8 mph88%30.07 "Hg4 mi
7:30 AM66 °FClear.8 mph88%30.07 "Hg4 mi
7:00 AM64 °FClear.8 mph94%30.07 "Hg4 mi
6:00 AM64 °FFog.6 mph94%30.07 "Hg2 mi
5:00 AM64 °FFog.6 mph94%30.07 "Hg2 mi
4:30 AM64 °FFog.6 mph94%30.07 "Hg2 mi
4:00 AM64 °FFog.5 mph100%30.09 "Hg2 mi
3:30 AM63 °FFog.2 mph94%30.09 "Hg2 mi
3:00 AM61 °FFog.3 mph100%30.09 "Hg2 mi
2:30 AM61 °FFog.6 mph100%30.09 "Hg2 mi
2:00 AM63 °FFog.5 mph100%30.09 "Hg2 mi
1:00 AM63 °FFog.6 mph100%30.09 "Hg2 mi
7:00 PM
Jul 22
73 °FScattered clouds.13 mph74%30.09 "HgN/A
6:30 PM73 °FPartly sunny.14 mph74%30.09 "HgN/A
6:00 PM73 °FPartly sunny.15 mph74%30.09 "HgN/A
5:30 PM75 °FScattered clouds.15 mph74%30.09 "HgN/A
5:00 PM75 °FScattered clouds.12 mph74%30.09 "HgN/A
4:30 PM75 °FBroken clouds.12 mph74%30.09 "HgN/A
4:00 PM75 °FPartly sunny.14 mph69%30.09 "HgN/A
3:30 PM75 °FBroken clouds.15 mph74%30.09 "HgN/A
3:00 PM75 °FBroken clouds.13 mph69%30.09 "HgN/A
2:30 PM73 °FPartly sunny.13 mph74%30.09 "HgN/A
2:00 PM73 °FPartly sunny.13 mph78%30.09 "HgN/A
1:30 PM72 °FPartly sunny.12 mph83%30.09 "HgN/A
1:00 PM70 °FPartly sunny.12 mph83%30.12 "Hg6 mi
12:30 PM68 °FLow clouds.12 mph88%30.09 "Hg5 mi
12:00 PM66 °FLow clouds.13 mph94%30.12 "Hg5 mi
Weather by CustomWeather, © 2014

See weather overviewHow to use our weather pages